Change the Weather History Date:

Sunday, February 23, 2014

  Actual Average (KBKW) Record (KBKW)
Temperature  
Mean Temperature 48 °F 36 °F  
Max Temperature 65 °F 45 °F 72 °F (1985)
Min Temperature 32 °F 27 °F -11 °F (1963)
Degree Days  
Heating Degree Days 16 29  
Month to date heating degree days 716  
Since 1 July heating degree days 3860  
Cooling Degree Days 0 0  
Month to date cooling degree days 0  
Year to date cooling degree days 0  
Moisture  
Dew Point 32 °F    
Average Humidity 64    
Maximum Humidity 95    
Minimum Humidity 27    
Precipitation  
Precipitation 0.00 in 0.10 in 2.04 in (1984)
Month to date precipitation 2.25  
Year to date precipitation 5.06  
Snow  
Snow 0.00 in - - ()
Month to date snowfall  
Since 1 September snowfall  
Snow Depth -    
Sea Level Pressure  
Sea Level Pressure 30.04 in    
Wind  
Wind Speed - (North)    
Max Wind Speed -    
Max Gust Speed -    
Visibility 10 miles    
Events Rain    
T = Trace of Precipitation, MM = Missing Value Source: NWS Daily Summary

Daily Weather History Graph

Daily Weather History Graph

Search for Another Location

Airport or City:

Trip Planner

Search our weather history database for the weather conditions in past years. The results will help you decide how hot, cold, wet, or windy it might be!

Date:

Astronomy

Feb. 23, 2014 Rise Set
Actual Time 7:05 AM EST 6:13 PM EST
Civil Twilight 6:39 AM EST 6:40 PM EST
Nautical Twilight 6:08 AM EST 7:10 PM EST
Astronomical Twilight 5:38 AM EST 7:41 PM EST
Moon 1:59 AM EST (2/23) 12:18 PM EST (2/23)
Length of Visible Light 12h 01m
Length of Day
11h 08m
Last Quarter, 39% of the Moon is Illuminated
Feb 23
Last Quarter
Mar 1
New
Mar 8
First Quarter
Mar 16
Full
Mar 23
Last Quarter

Hourly Weather History & Observations

Time (EST) Temp. Dew Point Humidity Pressure Visibility Wind Dir Wind Speed Gust Speed Precip Events Conditions
12:15 AM 32.9 °F 30.2 °F 90% 30.06 in 10.0 mi North - - N/A   Clear
12:35 AM 32.9 °F 30.2 °F 90% 30.06 in 10.0 mi North - - N/A   Clear
12:55 AM 32.7 °F 30.2 °F 90% 30.06 in 10.0 mi North - - N/A   Clear
1:15 AM 32.4 °F 29.7 °F 90% 30.07 in 10.0 mi North - - N/A   Clear
1:35 AM 32.9 °F 30.2 °F 90% 30.08 in 10.0 mi North - - N/A   Clear
2:00 AM 34.0 °F 30.9 °F 89% 30.08 in 10.0 mi North - - N/A   Clear
2:15 AM 33.8 °F 30.7 °F 89% 30.07 in 10.0 mi North - - N/A   Clear
2:35 AM 33.8 °F 31.5 °F 91% 30.06 in 10.0 mi North - - N/A   Clear
2:55 AM 33.8 °F 31.6 °F 92% 30.06 in 10.0 mi North - - N/A   Clear
3:15 AM 33.6 °F 31.6 °F 92% 30.06 in 10.0 mi North - - N/A   Clear
3:35 AM 34.0 °F 31.6 °F 91% 30.06 in 10.0 mi North - - N/A   Scattered Clouds
3:55 AM 34.5 °F 31.3 °F 88% 30.06 in 10.0 mi North - - N/A   Scattered Clouds
4:15 AM 34.7 °F 31.6 °F 89% 30.06 in 10.0 mi North - - N/A   Scattered Clouds
4:35 AM 34.2 °F 31.3 °F 89% 30.06 in 10.0 mi North - - N/A   Clear
4:55 AM 34.2 °F 31.5 °F 90% 30.06 in 10.0 mi North - - N/A   Clear
5:15 AM 34.2 °F 30.9 °F 88% 30.06 in 10.0 mi North - - N/A   Scattered Clouds
5:35 AM 34.7 °F 31.1 °F 87% 30.06 in 10.0 mi North - - N/A   Scattered Clouds
5:55 AM 34.5 °F 31.5 °F 89% 30.06 in 10.0 mi North - - N/A   Scattered Clouds
6:15 AM 34.3 °F 31.1 °F 88% 30.06 in 10.0 mi North - - N/A   Mostly Cloudy
6:35 AM 33.8 °F 31.6 °F 92% 30.06 in 10.0 mi North - - N/A   Scattered Clouds
6:55 AM 34.2 °F 31.6 °F 90% 30.07 in 10.0 mi North - - N/A   Scattered Clouds
7:15 AM 34.5 °F 31.1 °F 87% 30.07 in 10.0 mi North - - N/A   Scattered Clouds
7:35 AM 34.7 °F 31.6 °F 89% 30.08 in 10.0 mi North - - N/A   Scattered Clouds
7:55 AM 35.8 °F 31.8 °F 86% 30.06 in 10.0 mi North - - N/A   Mostly Cloudy
8:15 AM 37.8 °F 33.3 °F 84% 30.06 in 10.0 mi North - - N/A   Overcast
8:35 AM 39.7 °F 33.6 °F 79% 30.06 in 10.0 mi North - - N/A   Overcast
8:55 AM 40.6 °F 33.8 °F 77% 30.06 in 10.0 mi North - - N/A   Scattered Clouds
9:15 AM 45.3 °F 35.4 °F 68% 30.06 in 10.0 mi North - - N/A   Clear
9:35 AM 48.9 °F 37.0 °F 64% 30.06 in 10.0 mi North - - N/A   Clear
9:55 AM 54.9 °F 31.3 °F 41% 30.06 in 10.0 mi North - - N/A   Clear
10:20 AM 58.5 °F 30.0 °F 34% 30.05 in 10.0 mi North - - N/A   Clear
10:35 AM 58.3 °F 29.7 °F 34% 30.05 in 10.0 mi North - - N/A   Clear
10:55 AM 59.4 °F 30.2 °F 33% 30.04 in 10.0 mi North - - N/A   Clear
11:15 AM 59.4 °F 29.8 °F 33% 30.04 in 10.0 mi North - - N/A   Clear
11:35 AM 60.1 °F 30.0 °F 32% 30.04 in 10.0 mi North - - N/A   Clear
11:55 AM 60.8 °F 30.0 °F 31% 30.03 in 10.0 mi North - - N/A   Clear
12:15 PM 62.2 °F 30.9 °F 31% 30.03 in 10.0 mi North - - N/A   Clear
12:35 PM 62.1 °F 30.4 °F 30% 30.02 in 10.0 mi North - - N/A   Clear
12:55 PM 63.0 °F 29.3 °F 28% 30.01 in 10.0 mi North - - N/A   Clear
1:15 PM 63.5 °F 29.7 °F 28% 30.00 in 10.0 mi North - - N/A   Clear
1:35 PM 64.6 °F 30.2 °F 28% 29.99 in 10.0 mi North - - N/A   Clear
1:55 PM 64.9 °F 30.0 °F 27% 29.98 in 10.0 mi North - - N/A   Clear
2:15 PM 65.3 °F 30.2 °F 27% 29.98 in 10.0 mi North - - N/A   Clear
2:35 PM 65.5 °F 30.4 °F 27% 29.97 in 10.0 mi North - - N/A   Clear
2:55 PM 65.1 °F 30.2 °F 27% 29.96 in 10.0 mi North - - N/A   Clear
3:15 PM 65.5 °F 30.2 °F 27% 29.95 in 10.0 mi North - - N/A   Scattered Clouds
3:35 PM 65.3 °F 30.6 °F 27% 29.95 in 10.0 mi North - - N/A   Scattered Clouds
3:55 PM 63.1 °F 30.2 °F 29% 29.94 in 10.0 mi North - - N/A   Clear
4:15 PM 64.9 °F 31.3 °F 28% 29.94 in 10.0 mi North - - N/A   Mostly Cloudy
4:35 PM 63.3 °F 31.1 °F 30% 29.94 in 10.0 mi North - - N/A   Mostly Cloudy
4:55 PM 62.6 °F 31.1 °F 31% 29.94 in 10.0 mi North - - N/A   Mostly Cloudy
5:15 PM 61.5 °F 32.4 °F 33% 29.94 in 10.0 mi North - - N/A   Overcast
5:35 PM 60.4 °F 32.0 °F 34% 29.96 in 10.0 mi North - - N/A   Mostly Cloudy
5:55 PM 56.3 °F 32.5 °F 41% 29.97 in 10.0 mi North - - N/A   Scattered Clouds
6:15 PM 54.1 °F 33.1 °F 45% 29.98 in 10.0 mi North - - N/A   Scattered Clouds
6:35 PM 52.9 °F 32.9 °F 47% 30.00 in 10.0 mi North - - N/A   Clear
6:55 PM 52.0 °F 33.1 °F 49% 30.01 in 10.0 mi North - - N/A   Mostly Cloudy
7:15 PM 50.9 °F 33.3 °F 51% 30.02 in 10.0 mi North - - N/A   Overcast
7:35 PM 49.5 °F 34.3 °F 56% 30.03 in 10.0 mi North - - N/A   Mostly Cloudy
7:55 PM 47.5 °F 35.1 °F 62% 30.03 in 10.0 mi North - - N/A   Overcast
8:15 PM 46.8 °F 35.6 °F 65% 30.06 in 10.0 mi North - - N/A   Overcast
8:35 PM 45.5 °F 36.0 °F 69% 30.07 in 10.0 mi North - - N/A   Overcast
8:55 PM 45.0 °F 36.1 °F 71% 30.07 in 10.0 mi North - - N/A   Overcast
9:15 PM 44.8 °F 36.5 °F 73% 30.06 in 10.0 mi North - - N/A   Overcast
9:35 PM 44.6 °F 36.7 °F 74% 30.07 in 10.0 mi North - - N/A   Overcast
9:55 PM 43.9 °F 37.4 °F 78% 30.08 in 10.0 mi North - - N/A Rain Rain
10:15 PM 42.6 °F 39.7 °F 90% 30.08 in 7.0 mi North - - N/A Rain Light Rain
10:35 PM 41.9 °F 38.7 °F 88% 30.09 in 7.0 mi North - - N/A   Overcast
10:55 PM 41.4 °F 39.0 °F 91% 30.10 in 5.0 mi North - - N/A   Overcast
11:15 PM 41.0 °F 38.8 °F 92% 30.10 in 5.0 mi North - - N/A   Overcast
11:35 PM 39.6 °F 37.9 °F 94% 30.10 in 5.0 mi North - - N/A   Overcast
11:55 PM 38.8 °F 37.6 °F 95% 30.10 in 7.0 mi North - - N/A   Overcast